Weather History for Kalispell, MT

Change the Weather History Date:

Friday, March 8, 2013

  Actual Average Record
Temperature  
Mean Temperature 34 °F 32 °F  
Max Temperature 47 °F 42 °F 59 °F (1953)
Min Temperature 20 °F 23 °F -7 °F (1951)
Degree Days  
Heating Degree Days 31 32  
Month to date heating degree days 247 270  
Since 1 July heating degree days 5534 6122  
Cooling Degree Days 0 0  
Month to date cooling degree days 0 0  
Year to date cooling degree days 0 0  
Moisture  
Dew Point 23 °F    
Average Humidity 73    
Maximum Humidity 100    
Minimum Humidity 45    
Precipitation  
Precipitation 0.00 in 0.04 in 0.34 in (1916)
Month to date precipitation 0.22 0.29  
Year to date precipitation 1.27 2.59  
Snow  
Snow 0.00 in - - ()
Month to date snowfall 0.8  
Year to date snowfall 8.3  
Since 1 July snowfall 17.1  
Snow Depth 0.00 in    
Sea Level Pressure  
Sea Level Pressure 30.02 in    
Wind  
Wind Speed 2 mph (WSW)    
Max Wind Speed 10 mph    
Max Gust Speed 13 mph    
Visibility 5 miles    
Events Fog    
T = Trace of Precipitation, MM = Missing Value Source: NWS Daily Summary

Daily Weather History Graph

Daily Weather History Graph

Search for Another Location

Airport:

Trip Planner

Search our weather history database for the weather conditions in past years. The results will help you decide how hot, cold, wet, or windy it might be!

Date:

Astronomy

Mar. 08, 2013 Rise Set
Actual Time 7:03 AM MST 6:32 PM MST
Civil Twilight 6:32 AM MST 7:03 PM MST
Nautical Twilight 5:56 AM MST 7:39 PM MST
Astronomical Twilight 5:19 AM MST 8:16 PM MST
Moon 5:03 AM MST (3/8) 3:21 PM MST (3/8)
Length of Visible Light 12h 30m
Length of Day
11h 28m
Waning Crescent, 11% of the Moon is Illuminated
Mar 8
Waning Crescent
Mar 11
New
Mar 19
First Quarter
Mar 27
Full
Apr 2
Last Quarter

Hourly Weather History & Observations

Time (MST) Temp. Windchill Dew Point Humidity Pressure Visibility Wind Dir Wind Speed Gust Speed Precip Events Conditions
12:55 AM 28.0 °F - 27.0 °F 96% 30.08 in 10.0 mi Calm Calm - N/A   Scattered Clouds
1:55 AM 24.1 °F 19.7 °F 23.0 °F 96% 30.08 in 10.0 mi WSW 3.5 mph - N/A   Clear
2:55 AM 25.0 °F - 23.0 °F 92% 30.07 in 10.0 mi Calm Calm - N/A   Clear
3:28 AM 21.2 °F - 21.2 °F 100% 30.00 in 1.8 mi Calm Calm - N/A   Clear
3:33 AM 21.2 °F - 19.4 °F 93% 30.00 in 0.8 mi Calm Calm - N/A   Clear
3:41 AM 24.8 °F - 23.0 °F 93% 30.00 in 1.5 mi Calm Calm - N/A   Clear
3:43 AM 24.8 °F - 24.8 °F 100% 30.00 in 3.0 mi Calm Calm - N/A   Clear
3:55 AM 25.0 °F - 25.0 °F 100% 30.06 in 10.0 mi Calm Calm - N/A   Clear
4:55 AM 24.1 °F - 23.0 °F 96% 30.07 in 8.0 mi Calm Calm - N/A   Clear
5:01 AM 24.8 °F - 23.0 °F 93% 30.00 in 1.5 mi Calm Calm - N/A   Partly Cloudy
5:03 AM 24.8 °F - 23.0 °F 93% 30.00 in 1.0 mi Calm Calm - N/A   Mist
5:10 AM 23.0 °F - 21.2 °F 93% 30.00 in 0.5 mi Calm Calm - N/A Fog Light Freezing Fog
5:15 AM 21.2 °F - 21.2 °F 100% 30.00 in 1.2 mi Calm Calm - N/A   Scattered Clouds
5:17 AM 21.2 °F - 19.4 °F 93% 30.00 in 2.5 mi Calm Calm - N/A   Partly Cloudy
5:25 AM 21.2 °F - 19.4 °F 93% 30.00 in 1.2 mi Calm Calm - N/A   Partly Cloudy
5:27 AM 21.2 °F - 19.4 °F 93% 30.00 in 0.8 mi Calm Calm - N/A   Mist
5:35 AM 23.0 °F - 21.2 °F 93% 30.00 in 1.5 mi Calm Calm - N/A   Partly Cloudy
5:37 AM 21.2 °F - 21.2 °F 100% 30.00 in 3.0 mi Calm Calm - N/A   Clear
5:42 AM 21.2 °F 16.4 °F 21.2 °F 100% 30.00 in 1.5 mi NNW 3.5 mph - N/A   Partly Cloudy
5:44 AM 21.2 °F 16.4 °F 19.4 °F 93% 30.00 in 0.8 mi NNW 3.5 mph - N/A   Mist
5:53 AM 21.2 °F - 21.2 °F 100% 30.00 in 0.2 mi Calm Calm - N/A Fog Light Freezing Fog
5:55 AM 21.9 °F - 21.0 °F 96% 30.08 in 0.2 mi Calm Calm - N/A Fog Light Freezing Fog
6:11 AM 21.2 °F - 21.2 °F 100% 30.00 in 0.5 mi Calm Calm - N/A Fog Light Freezing Fog
6:29 AM 21.2 °F 16.4 °F 19.4 °F 93% 30.00 in 0.5 mi NE 3.5 mph - N/A Fog Light Freezing Fog
6:45 AM 23.0 °F 15.8 °F 21.2 °F 93% 30.00 in 0.5 mi NNE 5.8 mph - N/A Fog Light Freezing Fog
6:55 AM 23.0 °F - 21.9 °F 96% 30.09 in 0.2 mi Calm Calm - N/A Fog Light Freezing Fog
7:23 AM 23.0 °F - 21.2 °F 93% 30.00 in 0.2 mi Calm Calm - N/A Fog Light Freezing Fog
7:41 AM 23.0 °F - 21.2 °F 93% 30.00 in 0.2 mi Calm Calm - N/A Fog Light Freezing Fog
7:55 AM 23.0 °F - 21.9 °F 96% 30.09 in 0.2 mi Calm Calm - N/A Fog Light Freezing Fog
8:02 AM 24.8 °F - 23.0 °F 93% 30.00 in 0.2 mi Calm Calm - N/A Fog Light Freezing Fog
8:09 AM 24.8 °F - 23.0 °F 93% 30.00 in 0.8 mi Calm Calm - N/A   Mist
8:16 AM 24.8 °F - 21.2 °F 86% 30.00 in 1.5 mi Calm Calm - N/A   Mostly Cloudy
8:23 AM 24.8 °F - 24.8 °F 100% 30.00 in 3.0 mi Calm Calm - N/A   Mostly Cloudy
8:33 AM 24.8 °F - 24.8 °F 100% 30.01 in 8.0 mi Calm Calm - N/A   Scattered Clouds
8:55 AM 30.0 °F - 27.0 °F 88% 30.08 in 10.0 mi Calm Calm - N/A   Clear
9:55 AM 30.0 °F - 27.0 °F 88% 30.09 in 10.0 mi Calm Calm - N/A   Clear
10:55 AM 37.0 °F 34.5 °F 27.0 °F 67% 30.06 in 10.0 mi ENE 3.5 mph - N/A   Clear
11:55 AM 39.0 °F 36.8 °F 27.0 °F 62% 30.04 in 10.0 mi ESE 3.5 mph - N/A   Clear
12:55 PM 43.0 °F 40.3 °F 25.0 °F 49% 30.02 in 10.0 mi Variable 4.6 mph - N/A   Clear
1:55 PM 44.1 °F 42.5 °F 24.1 °F 45% 30.00 in 10.0 mi South 3.5 mph - N/A   Clear
2:55 PM 45.0 °F 42.6 °F 24.1 °F 44% 29.99 in 10.0 mi SSW 4.6 mph - N/A   Scattered Clouds
3:55 PM 44.1 °F 39.5 °F 25.0 °F 47% 29.99 in 10.0 mi South 8.1 mph - N/A   Clear
4:55 PM 45.0 °F 41.8 °F 24.1 °F 44% 29.99 in 10.0 mi South 5.8 mph - N/A   Scattered Clouds
5:55 PM 42.1 °F 39.2 °F 26.1 °F 53% 30.01 in 10.0 mi Variable 4.6 mph - N/A   Mostly Cloudy
6:55 PM 39.9 °F - 26.1 °F 58% 30.02 in 10.0 mi Calm Calm - N/A   Overcast
7:55 PM 39.9 °F - 23.0 °F 51% 30.04 in 10.0 mi Calm Calm - N/A   Overcast
8:55 PM 37.9 °F 34.4 °F 23.0 °F 55% 30.04 in 10.0 mi WNW 4.6 mph - N/A   Overcast
9:55 PM 37.9 °F 34.4 °F 23.0 °F 55% 30.06 in 10.0 mi West 4.6 mph - N/A   Overcast
10:55 PM 36.0 °F - 24.1 °F 62% 30.05 in 10.0 mi Calm Calm - N/A   Overcast
11:55 PM 35.1 °F - 25.0 °F 67% 30.06 in 10.0 mi Calm Calm - N/A   Overcast